This is the latest recevied weather packets stored in our database for station/object VK3PBR-10. If no packets are shown the sender has not sent any weather packets the latest 10 day(s).
| Time | Temp. | Humidity | Pressure | Rain* | Wind** | Luminosity | Snow |
|---|---|---|---|---|---|---|---|
| 1787733959 | 12.78° C | 72% | 1030.6 hPa | - | - | - | - |
| 1787733059 | 13.33° C | 71% | 1030.6 hPa | - | - | - | - |
| 1787732158 | 13.89° C | 69% | 1030.4 hPa | - | - | - | - |
| 1787731258 | 14.44° C | 67% | 1030.1 hPa | - | - | - | - |
| 1787730358 | 15° C | 64% | 1029.9 hPa | - | - | - | - |
| 1787729458 | 16.11° C | 62% | 1029.7 hPa | - | - | - | - |
| 1787728558 | 16.67° C | 61% | 1029.7 hPa | - | - | - | - |
| 1787727658 | 16.11° C | 63% | 1029.4 hPa | - | - | - | - |
| 1787726757 | 16.67° C | 62% | 1029.1 hPa | - | - | - | - |
| 1787725857 | 17.22° C | 61% | 1028.9 hPa | - | - | - | - |
| 1787724956 | 17.78° C | 58% | 1028.8 hPa | - | - | - | - |
| 1787724056 | 17.78° C | 54% | 1028.8 hPa | - | - | - | - |
| 1787723156 | 18.33° C | 54% | 1028.7 hPa | - | - | - | - |
| 1787722256 | 21.11° C | 58% | 1028.6 hPa | - | - | - | - |
| 1787721356 | 18.33° C | 54% | 1028.6 hPa | - | - | - | - |
| 1787720456 | 18.89° C | 53% | 1028.6 hPa | - | - | - | - |
| 1787719555 | 19.44° C | 63% | 1028.4 hPa | - | - | - | - |
| 1787718655 | 18.89° C | 60% | 1028.4 hPa | - | - | - | - |
| 1787717754 | 18.89° C | 61% | 1028.4 hPa | - | - | - | - |
| 1787716854 | 19.44° C | 62% | 1028.3 hPa | - | - | - | - |
| 1787715954 | 21.11° C | 56% | 1028.3 hPa | - | - | - | - |
| 1787715053 | 21.67° C | 41% | 1028.1 hPa | - | - | - | - |
| 1787714153 | 20° C | 62% | 1028.2 hPa | - | - | - | - |
| 1787713253 | 22.78° C | 54% | 1028.3 hPa | - | - | - | - |
| 1787712353 | 18.33° C | 60% | 1028.5 hPa | - | - | - | - |
* Rain since midnight (hover to see other rain measurements)
** Current wind speed in m/s (hover to see current wind gust speed)